This demonstration page uses our WeatherBlox Daily Observations layout. Learn more.

Left ArrowRight Arrow

38.80484, -77.04692

Hourly Observations for May 7, 2021

Temp ( °F °C ) Dew Point ( °F °C ) Humidity (%) Winds ( mph kmh ) Pressure ( in mb ) Visibility ( mi km ) Precip ( " mm )
12:52 am 00:52 Cloudy 54 12.2 44 6.7 69 69 SSW 3 6 29.96 1015 10 16 N/A
1:52 am 01:52 Cloudy 53 11.7 42 5.6 66 66 N N/A 29.95 1014 10 16 N/A
2:52 am 02:52 Cloudy 53 11.7 44 6.7 72 72 N N/A 29.93 1014 10 16 N/A
3:52 am 03:52 Mostly Cloudy 50 10 43 6.1 77 77 N N/A 29.92 1013 10 16 N/A
4:52 am 04:52 Mostly Cloudy 50 10 43 6.1 77 77 WSW 3 6 29.91 1013 10 16 N/A
5:52 am 05:52 Partly Cloudy 50 10 43 6.1 77 77 N N/A 29.91 1013 10 16 N/A
6:52 am 06:52 Partly Cloudy 51 10.6 43 6.1 74 74 N N/A 29.91 1013 10 16 N/A
7:52 am 07:52 Mostly Cloudy 54 12.2 48 8.9 80 80 NE 3 6 29.91 1013 10 16 N/A
8:52 am 08:52 Cloudy 57 13.9 46 7.8 67 67 ESE 5 7 29.90 1013 10 16 N/A
9:52 am 09:52 Cloudy 60 15.6 42 5.6 52 52 SSE 6 9 29.89 1012 10 16 N/A
10:52 am 10:52 Cloudy 61 16.1 43 6.1 52 52 SSW 7 11 29.89 1012 10 16 N/A
11:52 am 11:52 Cloudy 63 17.2 44 6.7 50 50 S 8 13 29.88 1012 10 16 N/A
12:52 pm 12:52 Cloudy 63 17.2 44 6.7 50 50 SSW 9 15 29.86 1011 10 16 N/A
1:52 pm 13:52 Cloudy 64 17.8 44 6.7 48 48 WSW 10 17 29.85 1011 10 16 N/A
2:28 pm 14:28 Mostly Cloudy with Nearby Thunderstorms 65 18.3 44 6.7 47 47 SW 15 24 29.84 1010 10 16 N/A
2:52 pm 14:52 Cloudy with Nearby Thunderstorms 63 17.2 42 5.6 47 47 SW 9 15 29.84 1010 10 16 N/A
3:52 pm 15:52 Cloudy with Light Rain 59 15 45 7.2 60 60 W 13 20 29.84 1011 10 16 0.00 0.00
4:52 pm 16:52 Cloudy with Light Rain 56 13.3 47 8.3 72 72 N 8 13 29.86 1011 10 16 0.00 0.00
5:52 pm 17:52 Cloudy with Light Rain 54 12.2 47 8.3 77 77 NNW 6 9 29.87 1012 8 13 0.03 0.76
6:52 pm 18:52 Cloudy with Light Rain 54 12.2 48 8.9 80 80 NNW 6 9 29.88 1012 10 16 0.01 0.25
7:52 pm 19:52 Cloudy with Light Rain 54 12.2 48 8.9 80 80 WNW 7 11 29.89 1012 10 16 0.01 0.25
8:52 pm 20:52 Mostly Cloudy 53 11.7 46 7.8 77 77 NW 10 17 29.90 1012 10 16 0.00 0.00
9:52 pm 21:52 Mostly Cloudy 52 11.1 44 6.7 75 75 NW 8 13 29.92 1013 10 16 N/A
10:52 pm 22:52 Mostly Cloudy 51 10.6 42 5.6 71 71 NW 9 15 29.92 1013 10 16 N/A
11:52 pm 23:52 Mostly Clear 49 9.4 41 5 74 74 NNW 6 9 29.91 1013 10 16 N/A

Powered by AerisWeather